Hourly Data Report for November 21, 2003

TORONTO CITY
ONTARIO

43°40'00.000" N
79°24'00.000" W
112.50 m
6158355
71508
XTO

Download Data

Hourly Data (November 2003)
Hourly Data Report for November 21, 2003
TIME
LST
Temp Definition
°C
Dew Point Definition
°C
Rel Hum Definition
%
Precip. Amount Definition
mm

Wind Dir Definition
10's deg

Wind Spd Definition
km/h
Visibility Definition
km
Stn Press Definition
kPa
Hmdx Definition


Wind Chill Definition


Weather Definition


00:00 8.5 5.1 79   LegendMM LegendMM LegendMM 99.67     LegendNANA
01:00 7.9 4.9 81   LegendMM LegendMM LegendMM 99.63     LegendNANA
02:00 9.1 4.9 75   LegendMM LegendMM LegendMM 99.61     LegendNANA
03:00 9.6 5.8 77   LegendMM LegendMM LegendMM 99.59     LegendNANA
04:00 9.9 5.9 76   LegendMM LegendMM LegendMM 99.63     LegendNANA
05:00 9.6 6.0 78   LegendMM LegendMM LegendMM 99.70     LegendNANA
06:00 9.4 6.1 80   LegendMM LegendMM LegendMM 99.75     LegendNANA
07:00 8.6 5.9 83   LegendMM LegendMM LegendMM 99.86     LegendNANA
08:00 8.3 5.9 85   LegendMM LegendMM LegendMM 99.91     LegendNANA
09:00 9.4 6.1 80   LegendMM LegendMM LegendMM 99.99     LegendNANA
10:00 11.1 6.7 74   LegendMM LegendMM LegendMM 100.06     LegendNANA
11:00 12.6 6.4 66   LegendMM LegendMM LegendMM 100.09     LegendNANA
12:00 13.2 2.7 49   LegendMM LegendMM LegendMM 100.12     LegendNANA
13:00 13.4 2.0 46   LegendMM LegendMM LegendMM 100.16     LegendNANA
14:00 12.4 2.8 52   LegendMM LegendMM LegendMM 100.21     LegendNANA
15:00 12.0 2.5 52   LegendMM LegendMM LegendMM 100.26     LegendNANA
16:00 10.9 3.2 59   LegendMM LegendMM LegendMM 100.30     LegendNANA
17:00 10.0 2.8 61   LegendMM LegendMM LegendMM 100.37     LegendNANA
18:00 8.5 2.5 66   LegendMM LegendMM LegendMM 100.49     LegendNANA
19:00 7.1 1.8 69   LegendMM LegendMM LegendMM 100.54     LegendNANA
20:00 6.7 1.2 68   LegendMM LegendMM LegendMM 100.54     LegendNANA
21:00 6.6 1.1 68   LegendMM LegendMM LegendMM 100.55     LegendNANA
22:00 5.9 0.9 70   LegendMM LegendMM LegendMM 100.60     LegendNANA
23:00 5.8 1.2 72   LegendMM LegendMM LegendMM 100.64     LegendNANA

Notes on Data Quality.

Legend

  • E = Estimated
  • M = Missing
  • NA = Not Available*
  • [empty] = Indicates an unobserved value
Date modified: